Location: Chuathbaluk
(61.5726°N, 159.2454°W)
Time: 04:50:46
(UTC+00:00)

FO-99 - Pass Details

Date: 23 January 2021
Orbit: 473 x 506 km, 97.2° (Epoch: 08 March)

Event Time Altitude Azimuth Distance (km) Brightness Sun altitude
Exits shadow 05:36:56 14° 359° (N) 1,489 ? -22.7°
Drops below altitude 10° 05:37:29 10° 355° (N) 1,704 ? -22.7°
Sets 05:39:39 0° 347° (NNW) 2,584 ? -23.0°
